Change the Weather History Date:

Saturday, June 29, 2013

  Actual Average Record
Temperature  
Mean Temperature 63 °F -  
Max Temperature 72 °F 69 °F 78 °F (2010)
Min Temperature 54 °F 52 °F 46 °F (2011)
Degree Days  
Heating Degree Days 2    
Growing Degree Days 13 (Base 50)    
Moisture  
Dew Point 51 °F    
Average Humidity 67    
Maximum Humidity 94    
Minimum Humidity 32    
Precipitation  
Precipitation 0.00 in - - ()
Sea Level Pressure  
Sea Level Pressure 30.21 in    
Wind  
Wind Speed 7 mph ()    
Max Wind Speed 12 mph    
Max Gust Speed 20 mph    
Visibility 8.9 miles    
Events      
Averages and records for this station are not official NWS values.
T = Trace of Precipitation, MM = Missing Value Source: Averaged Metar Reports

Daily Weather History Graph

Daily Weather History Graph

Search for Another Location

Airport or City:

Trip Planner

Search our weather history database for the weather conditions in past years. The results will help you decide how hot, cold, wet, or windy it might be!

Date:

Astronomy

Jun. 29, 2013 Rise Set
Actual Time 4:50 AM BST 9:28 PM BST
Civil Twilight 4:02 AM BST 10:16 PM BST
Nautical Twilight 2:47 AM BST 11:31 PM BST
Astronomical Twilight 1:42 AM BST 12:37 AM BST
Moon No Moon Rise 12:41 PM BST (6/29)
Length of Visible Light 18h 13m
Length of Day
16h 37m
Waning Gibbous, 58% of the Moon is Illuminated
Jun 29
Waning Gibbous
Jun 30
Last Quarter
Jul 8
New
Jul 16
First Quarter
Jul 22
Full

Hourly Weather History & Observations

Time (BST) Temp. Dew Point Humidity Pressure Visibility Wind Dir Wind Speed Gust Speed Precip Events Conditions
12:50 AM 59 °F 56 °F 87% 30.12 in 16 mi WNW 6.9 mph - -   Partly Cloudy
12:50 AM 59.0 °F 55.4 °F 88% 30.09 in 6.2 mi WNW 6.9 mph - N/A   Mostly Cloudy
1:50 AM 57.2 °F 55.4 °F 94% 30.12 in 6.2 mi West 4.6 mph - N/A   Mostly Cloudy
2:50 AM 57.2 °F 55.4 °F 94% 30.12 in 6.2 mi West 4.6 mph - N/A   Mostly Cloudy
3:50 AM 56 °F 52 °F 83% 30.15 in 16 mi NW 10.4 mph - -   Partly Cloudy
3:50 AM 57.2 °F 51.8 °F 82% 30.12 in 6.2 mi NW 10.4 mph - N/A   Mostly Cloudy
4:50 AM 55.4 °F 50.0 °F 82% 30.15 in 6.2 mi NW 8.1 mph - N/A   Mostly Cloudy
5:50 AM 53.6 °F 46.4 °F 77% 30.15 in 6.2 mi NNW 10.4 mph - N/A   Mostly Cloudy
6:50 AM 55 °F 47 °F 67% 30.19 in 19 mi NNW 8.1 mph - -   Scattered Clouds
6:50 AM 55.4 °F 46.4 °F 72% 30.18 in 6.2 mi NNW 8.1 mph - N/A   Mostly Cloudy
7:50 AM 55.4 °F 48.2 °F 77% 30.21 in 6.2 mi NNW 10.4 mph - N/A   Mostly Cloudy
8:50 AM 57.2 °F 48.2 °F 72% 30.21 in 6.2 mi NNW 11.5 mph - N/A   Mostly Cloudy
9:50 AM 59 °F 48 °F 59% 30.24 in 19 mi NW 10.4 mph - -   Scattered Clouds
9:50 AM 59.0 °F 48.2 °F 67% 30.24 in 6.2 mi NW 10.4 mph - N/A   Mostly Cloudy
10:50 AM 60.8 °F 48.2 °F 63% 30.24 in 6.2 mi NW 9.2 mph - N/A   Mostly Cloudy
11:50 AM 62.6 °F 48.2 °F 59% 30.24 in 6.2 mi NW 9.2 mph - N/A   Mostly Cloudy
12:50 PM 64 °F 47 °F 44% 30.25 in 22 mi NW 8.1 mph - -   Scattered Clouds
12:50 PM 64.4 °F 48.2 °F 56% 30.24 in 6.2 mi NW 8.1 mph 19.6 mph N/A   Mostly Cloudy
1:50 PM 66.2 °F 50.0 °F 56% 30.24 in 6.2 mi WNW 8.1 mph - N/A   Mostly Cloudy
2:50 PM 68.0 °F 48.2 °F 49% 30.24 in 6.2 mi WNW 8.1 mph - N/A   Scattered Clouds
3:50 PM 69 °F 46 °F 32% 30.24 in 19 mi NW 9.2 mph - -   Scattered Clouds
3:50 PM 69.8 °F 46.4 °F 43% 30.24 in 6.2 mi NW 9.2 mph - N/A   Scattered Clouds
4:50 PM 69.8 °F 48.2 °F 46% 30.24 in 6.2 mi West 6.9 mph - N/A   Scattered Clouds
5:50 PM 71.6 °F 50.0 °F 46% 30.21 in - West 8.1 mph - N/A   Clear
6:50 PM 70 °F 53 °F 44% 30.23 in 25 mi West 6.9 mph - -   Scattered Clouds
6:50 PM 69.8 °F 53.6 °F 56% 30.21 in - West 6.9 mph - N/A   Clear
7:50 PM 68.0 °F 57.2 °F 68% 30.24 in - WSW 5.8 mph - N/A   Clear
8:50 PM 66.2 °F 59.0 °F 78% 30.24 in - WSW 5.8 mph - N/A   Clear
9:50 PM 65 °F 56 °F 66% 30.26 in 16 mi West 3.5 mph - -   Mostly Cloudy
9:50 PM 66.2 °F 57.2 °F 73% 30.24 in 6.2 mi West 3.5 mph - N/A   Mostly Cloudy
10:50 PM 64.4 °F 57.2 °F 77% 30.27 in 6.2 mi WSW 3.5 mph - N/A   Mostly Cloudy
11:50 PM 62.6 °F 57.2 °F 82% 30.24 in - West 2.3 mph - N/A   Clear